Time,TemperatureF,DewpointF,PressureIn,WindDirection,WindDirectionDegrees,WindSpeedMPH,WindSpeedGustMPH,Humidity,HourlyPrecipIn,Conditions,Clouds,dailyrainin,SoftwareType,DateUTC
2013-05-11 00:03:00,71.0,67.0,30.05,WNW,289,0.0,0.0,88,0.00,,,0.00,,2013-05-11 04:03:00,
2013-05-11 00:12:00,71.0,67.0,30.05,WNW,289,0.0,0.0,88,0.00,,,0.00,,2013-05-11 04:12:00,
2013-05-11 00:23:00,71.0,67.0,30.05,WNW,289,0.0,0.0,88,0.00,,,0.00,,2013-05-11 04:23:00,
2013-05-11 00:33:00,71.0,68.0,30.04,WNW,289,0.0,0.0,89,0.00,,,0.00,,2013-05-11 04:33:00,
2013-05-11 00:43:00,71.0,68.0,30.04,WNW,289,0.0,0.0,90,0.00,,,0.00,,2013-05-11 04:43:00,
2013-05-11 00:52:00,71.0,68.0,30.04,WNW,289,0.0,0.0,90,0.00,,,0.00,,2013-05-11 04:52:00,
2013-05-11 01:02:00,71.0,68.0,30.04,WNW,288,0.0,0.0,89,0.00,,,0.00,,2013-05-11 05:02:00,
2013-05-11 01:12:00,71.0,68.0,30.04,WNW,288,0.0,0.0,89,0.00,,,0.00,,2013-05-11 05:12:00,
2013-05-11 01:22:00,71.0,68.0,30.04,WNW,289,0.0,0.0,89,0.00,,,0.00,,2013-05-11 05:22:00,
2013-05-11 01:32:00,71.0,68.0,30.04,WNW,289,0.0,0.0,89,0.00,,,0.00,,2013-05-11 05:32:00,
2013-05-11 01:42:00,70.0,67.0,30.03,WNW,289,0.0,0.0,89,0.00,,,0.00,,2013-05-11 05:42:00,
2013-05-11 01:52:00,70.0,67.0,30.03,WNW,289,0.0,0.0,89,0.00,,,0.00,,2013-05-11 05:52:00,
2013-05-11 02:02:00,70.0,67.0,30.03,WNW,289,0.0,0.0,90,0.00,,,0.00,,2013-05-11 06:02:00,
2013-05-11 02:12:00,70.0,67.0,30.03,WNW,289,0.0,0.0,90,0.00,,,0.00,,2013-05-11 06:12:00,
2013-05-11 02:21:00,71.0,68.0,30.04,WNW,288,0.0,0.0,91,0.00,,,0.00,,2013-05-11 06:21:00,
2013-05-11 02:32:00,72.0,69.0,30.04,WNW,289,0.0,0.0,89,0.00,,,0.00,,2013-05-11 06:32:00,
2013-05-11 02:42:00,72.0,69.0,30.03,WNW,289,0.0,0.0,89,0.00,,,0.00,,2013-05-11 06:42:00,
2013-05-11 02:52:00,72.0,69.0,30.03,WNW,289,0.0,0.0,89,0.00,,,0.00,,2013-05-11 06:52:00,
2013-05-11 03:02:00,72.0,69.0,30.03,WNW,289,0.0,0.0,89,0.00,,,0.00,,2013-05-11 07:02:00,
2013-05-11 03:12:00,72.0,69.0,30.03,WNW,289,0.0,0.0,89,0.00,,,0.00,,2013-05-11 07:12:00,
2013-05-11 03:21:00,71.0,68.0,30.01,WNW,289,0.0,0.0,90,0.00,,,0.00,,2013-05-11 07:21:00,
2013-05-11 03:32:00,71.0,68.0,30.01,WNW,289,0.0,0.0,90,0.00,,,0.00,,2013-05-11 07:32:00,
2013-05-11 03:42:00,71.0,68.0,30.01,WNW,289,0.0,0.0,90,0.00,,,0.00,,2013-05-11 07:42:00,
2013-05-11 03:52:00,70.0,67.0,30.00,WNW,289,0.0,0.0,91,0.00,,,0.00,,2013-05-11 07:52:00,
2013-05-11 04:01:00,71.0,68.0,30.00,WNW,288,0.0,0.0,91,0.00,,,0.00,,2013-05-11 08:01:00,
2013-05-11 04:12:00,71.0,68.0,30.00,WNW,288,0.0,0.0,91,0.00,,,0.00,,2013-05-11 08:12:00,
2013-05-11 04:21:00,70.0,67.0,29.99,WNW,289,0.0,0.0,91,0.00,,,0.00,,2013-05-11 08:21:00,
2013-05-11 04:32:00,70.0,68.0,29.99,WNW,289,0.0,0.0,92,0.00,,,0.00,,2013-05-11 08:32:00,
2013-05-11 04:42:00,70.0,67.0,29.99,WNW,288,0.0,0.0,91,0.00,,,0.00,,2013-05-11 08:42:00,
2013-05-11 04:52:00,70.0,67.0,29.99,WNW,288,0.0,0.0,91,0.00,,,0.00,,2013-05-11 08:52:00,
2013-05-11 05:01:00,70.0,68.0,29.99,WNW,289,0.0,0.0,92,0.00,,,0.00,,2013-05-11 09:01:00,
2013-05-11 05:11:00,70.0,68.0,29.99,WNW,289,0.0,0.0,92,0.00,,,0.00,,2013-05-11 09:11:00,
2013-05-11 05:21:00,70.0,68.0,30.00,WNW,289,0.0,0.0,92,0.00,,,0.00,,2013-05-11 09:21:00,
2013-05-11 05:32:00,70.0,68.0,30.00,WNW,289,0.0,0.0,92,0.00,,,0.00,,2013-05-11 09:32:00,
2013-05-11 05:42:00,70.0,68.0,30.00,WNW,289,0.0,0.0,92,0.00,,,0.00,,2013-05-11 09:42:00,
2013-05-11 05:53:00,70.0,68.0,30.00,WNW,289,0.0,0.0,92,0.00,,,0.00,,2013-05-11 09:53:00,
2013-05-11 06:03:00,70.0,68.0,30.00,WNW,288,0.0,0.0,92,0.00,,,0.00,,2013-05-11 10:03:00,
2013-05-11 06:12:00,70.0,68.0,30.00,WNW,288,0.0,0.0,92,0.00,,,0.00,,2013-05-11 10:12:00,
2013-05-11 06:22:00,70.0,68.0,30.00,WNW,289,0.0,0.0,92,0.00,,,0.00,,2013-05-11 10:22:00,
2013-05-11 06:33:00,70.0,68.0,30.00,WNW,289,0.0,0.0,92,0.00,,,0.00,,2013-05-11 10:33:00,
2013-05-11 06:42:00,70.0,68.0,30.01,WNW,288,0.0,0.0,93,0.00,,,0.00,,2013-05-11 10:42:00,
2013-05-11 06:52:00,70.0,68.0,30.01,WNW,288,0.0,0.0,93,0.00,,,0.00,,2013-05-11 10:52:00,
2013-05-11 07:02:00,71.0,69.0,30.01,WNW,288,0.0,0.0,92,0.00,,,0.00,,2013-05-11 11:02:00,
2013-05-11 07:12:00,71.0,69.0,30.01,WNW,288,0.0,0.0,92,0.00,,,0.00,,2013-05-11 11:12:00,
2013-05-11 07:22:00,71.0,69.0,30.01,WNW,288,0.0,0.0,92,0.00,,,0.00,,2013-05-11 11:22:00,
2013-05-11 07:32:00,71.0,69.0,30.02,WNW,289,0.0,0.0,93,0.00,,,0.00,,2013-05-11 11:32:00,
2013-05-11 07:42:00,71.0,69.0,30.02,WNW,289,0.0,0.0,93,0.00,,,0.00,,2013-05-11 11:42:00,
2013-05-11 07:52:00,71.0,69.0,30.02,WNW,289,0.0,0.0,93,0.00,,,0.00,,2013-05-11 11:52:00,
2013-05-11 08:01:00,73.0,71.0,30.02,WNW,289,0.0,1.0,93,0.00,,,0.00,,2013-05-11 12:01:00,
2013-05-11 08:11:00,73.0,71.0,30.02,WNW,289,0.0,1.0,93,0.00,,,0.00,,2013-05-11 12:11:00,
2013-05-11 08:22:00,73.0,71.0,30.01,South,174,0.0,1.0,93,0.00,,,0.00,,2013-05-11 12:22:00,
2013-05-11 08:32:00,74.0,72.0,30.01,South,180,0.0,1.0,93,0.00,,,0.00,,2013-05-11 12:32:00,
2013-05-11 08:42:00,74.0,72.0,30.02,SSE,160,0.0,3.0,92,0.00,,,0.00,,2013-05-11 12:42:00,
2013-05-11 08:52:00,74.0,72.0,30.02,SSE,160,0.0,3.0,92,0.00,,,0.00,,2013-05-11 12:52:00,
2013-05-11 09:02:00,75.0,73.0,30.02,South,176,0.0,3.0,93,0.00,,,0.00,,2013-05-11 13:02:00,
2013-05-11 09:11:00,75.0,73.0,30.02,South,176,0.0,3.0,93,0.00,,,0.00,,2013-05-11 13:11:00,
2013-05-11 09:21:00,75.0,73.0,30.03,South,181,1.0,3.0,92,0.00,,,0.00,,2013-05-11 13:21:00,
2013-05-11 09:32:00,76.0,74.0,30.03,South,180,1.0,3.0,92,0.00,,,0.00,,2013-05-11 13:32:00,
2013-05-11 09:42:00,77.0,74.0,30.03,SSE,159,1.0,3.0,91,0.00,,,0.00,,2013-05-11 13:42:00,
2013-05-11 09:52:00,77.0,74.0,30.03,SSE,159,1.0,3.0,91,0.00,,,0.00,,2013-05-11 13:52:00,
2013-05-11 10:02:00,80.0,76.0,30.03,South,184,1.0,3.0,88,0.00,,,0.00,,2013-05-11 14:02:00,
2013-05-11 10:11:00,80.0,76.0,30.03,South,184,1.0,3.0,88,0.00,,,0.00,,2013-05-11 14:11:00,
2013-05-11 10:21:00,82.0,74.0,30.03,South,179,1.0,4.0,76,0.00,,,0.00,,2013-05-11 14:21:00,
2013-05-11 10:32:00,84.0,75.0,30.03,South,173,0.0,1.0,74,0.00,,,0.00,,2013-05-11 14:32:00,
2013-05-11 10:42:00,84.0,74.0,30.03,SE,142,1.0,5.0,71,0.00,,,0.00,,2013-05-11 14:42:00,
2013-05-11 10:52:00,84.0,74.0,30.03,SE,142,1.0,5.0,71,0.00,,,0.00,,2013-05-11 14:52:00,
2013-05-11 11:01:00,84.0,73.0,30.03,West,278,0.0,4.0,70,0.00,,,0.00,,2013-05-11 15:01:00,
2013-05-11 11:11:00,84.0,74.0,30.03,SW,236,0.0,3.0,71,0.00,,,0.00,,2013-05-11 15:11:00,
2013-05-11 11:21:00,84.0,74.0,30.03,SW,236,0.0,3.0,71,0.00,,,0.00,,2013-05-11 15:21:00,
2013-05-11 11:32:00,86.0,74.0,30.03,SW,221,0.0,3.0,68,0.00,,,0.00,,2013-05-11 15:32:00,
2013-05-11 11:43:00,86.0,74.0,30.03,South,179,0.0,3.0,67,0.00,,,0.00,,2013-05-11 15:43:00,
2013-05-11 11:53:00,86.0,74.0,30.03,South,179,0.0,3.0,67,0.00,,,0.00,,2013-05-11 15:53:00,
2013-05-11 12:03:00,85.0,74.0,30.03,SSW,194,0.0,3.0,69,0.00,,,0.00,,2013-05-11 16:03:00,
2013-05-11 12:12:00,85.0,74.0,30.03,SSW,194,0.0,3.0,69,0.00,,,0.00,,2013-05-11 16:12:00,
2013-05-11 12:23:00,85.0,74.0,30.03,SSW,205,0.0,6.0,69,0.00,,,0.00,,2013-05-11 16:23:00,
2013-05-11 12:33:00,86.0,75.0,30.03,WSW,237,0.0,2.0,69,0.00,,,0.00,,2013-05-11 16:33:00,
2013-05-11 12:42:00,86.0,75.0,30.03,WNW,290,0.0,4.0,69,0.00,,,0.00,,2013-05-11 16:42:00,
2013-05-11 12:53:00,86.0,75.0,30.03,WNW,290,0.0,4.0,69,0.00,,,0.00,,2013-05-11 16:53:00,
2013-05-11 13:02:00,84.0,74.0,30.02,West,267,1.0,6.0,72,0.00,,,0.00,,2013-05-11 17:02:00,
2013-05-11 13:12:00,84.0,74.0,30.02,West,267,1.0,6.0,72,0.00,,,0.00,,2013-05-11 17:12:00,
2013-05-11 13:22:00,86.0,74.0,30.02,WSW,242,1.0,4.0,68,0.00,,,0.00,,2013-05-11 17:22:00,
2013-05-11 13:32:00,87.0,73.0,30.02,WSW,248,0.0,6.0,63,0.00,,,0.00,,2013-05-11 17:32:00,
2013-05-11 13:42:00,87.0,73.0,30.01,WNW,288,3.0,6.0,64,0.00,,,0.00,,2013-05-11 17:42:00,
2013-05-11 13:52:00,87.0,73.0,30.01,WNW,288,3.0,6.0,64,0.00,,,0.00,,2013-05-11 17:52:00,
2013-05-11 14:01:00,87.0,72.0,30.02,SSW,203,1.0,7.0,62,0.00,,,0.00,,2013-05-11 18:01:00,
2013-05-11 14:12:00,87.0,72.0,30.02,SSW,203,1.0,7.0,62,0.00,,,0.00,,2013-05-11 18:12:00,
2013-05-11 14:21:00,88.0,72.0,30.01,SSW,211,3.0,8.0,59,0.00,,,0.00,,2013-05-11 18:21:00,
2013-05-11 14:32:00,87.0,71.0,30.01,West,280,4.0,7.0,59,0.00,,,0.00,,2013-05-11 18:32:00,
2013-05-11 14:42:00,88.0,72.0,30.01,West,275,3.0,13.0,59,0.00,,,0.00,,2013-05-11 18:42:00,
2013-05-11 14:52:00,88.0,72.0,30.01,West,275,3.0,13.0,59,0.00,,,0.00,,2013-05-11 18:52:00,
2013-05-11 15:02:00,87.0,71.0,30.01,WSW,248,5.0,11.0,59,0.00,,,0.00,,2013-05-11 19:02:00,
2013-05-11 15:11:00,87.0,71.0,30.01,WSW,248,5.0,11.0,59,0.00,,,0.00,,2013-05-11 19:11:00,
2013-05-11 15:21:00,87.0,72.0,30.01,WNW,303,0.0,9.0,61,0.00,,,0.00,,2013-05-11 19:21:00,
2013-05-11 15:32:00,88.0,74.0,30.00,WSW,251,1.0,7.0,63,0.00,,,0.00,,2013-05-11 19:32:00,
2013-05-11 15:42:00,87.0,74.0,30.01,West,268,0.0,3.0,65,0.00,,,0.00,,2013-05-11 19:42:00,
2013-05-11 15:53:00,87.0,74.0,30.01,West,268,0.0,3.0,65,0.00,,,0.00,,2013-05-11 19:53:00,
2013-05-11 16:02:00,85.0,74.0,30.00,WSW,252,2.0,7.0,69,0.00,,,0.00,,2013-05-11 20:02:00,
2013-05-11 16:12:00,85.0,74.0,30.00,WSW,252,2.0,7.0,69,0.00,,,0.00,,2013-05-11 20:12:00,
2013-05-11 16:22:00,85.0,75.0,30.00,SSW,205,0.0,6.0,71,0.00,,,0.00,,2013-05-11 20:22:00,
2013-05-11 16:32:00,85.0,74.0,30.00,West,261,5.0,11.0,70,0.00,,,0.00,,2013-05-11 20:32:00,
2013-05-11 16:42:00,85.0,75.0,30.00,WNW,302,0.0,6.0,71,0.00,,,0.00,,2013-05-11 20:42:00,
2013-05-11 16:52:00,85.0,75.0,30.00,WNW,302,0.0,6.0,71,0.00,,,0.00,,2013-05-11 20:52:00,
2013-05-11 17:02:00,83.0,74.0,30.00,SSW,205,1.0,6.0,74,0.00,,,0.00,,2013-05-11 21:02:00,
2013-05-11 17:11:00,83.0,74.0,30.00,SSW,205,1.0,6.0,74,0.00,,,0.00,,2013-05-11 21:11:00,
2013-05-11 17:22:00,82.0,74.0,30.00,WNW,292,1.0,6.0,77,0.00,,,0.00,,2013-05-11 21:22:00,
2013-05-11 17:33:00,82.0,74.0,30.00,NW,313,0.0,5.0,78,0.00,,,0.00,,2013-05-11 21:33:00,
2013-05-11 17:43:00,82.0,74.0,30.00,NW,313,0.0,5.0,78,0.00,,,0.00,,2013-05-11 21:43:00,
2013-05-11 17:53:00,81.0,73.0,30.00,WNW,284,5.0,11.0,78,0.00,,,0.00,,2013-05-11 21:53:00,
2013-05-11 18:02:00,81.0,74.0,30.00,WSW,256,1.0,9.0,80,0.00,,,0.00,,2013-05-11 22:02:00,
2013-05-11 18:13:00,81.0,74.0,30.00,WSW,256,1.0,9.0,80,0.00,,,0.00,,2013-05-11 22:13:00,
2013-05-11 18:23:00,80.0,74.0,30.00,WSW,254,2.0,7.0,82,0.00,,,0.00,,2013-05-11 22:23:00,
2013-05-11 18:33:00,80.0,74.0,30.00,WSW,253,0.0,7.0,82,0.00,,,0.00,,2013-05-11 22:33:00,
2013-05-11 18:42:00,80.0,74.0,30.00,WSW,253,0.0,7.0,82,0.00,,,0.00,,2013-05-11 22:42:00,
2013-05-11 18:52:00,80.0,74.0,30.00,NW,317,0.0,7.0,83,0.00,,,0.00,,2013-05-11 22:52:00,
2013-05-11 19:02:00,80.0,75.0,29.99,West,269,1.0,7.0,84,0.00,,,0.00,,2013-05-11 23:02:00,
2013-05-11 19:12:00,80.0,75.0,29.99,West,269,1.0,7.0,84,0.00,,,0.00,,2013-05-11 23:12:00,
2013-05-11 19:22:00,79.0,74.0,30.01,West,267,8.0,15.0,84,0.00,,,0.00,,2013-05-11 23:22:00,
2013-05-11 19:32:00,76.0,70.0,30.00,ENE,57,0.0,15.0,81,0.00,,,0.00,,2013-05-11 23:32:00,
2013-05-11 19:42:00,74.0,69.0,30.01,NW,325,2.0,6.0,85,0.02,,,0.02,,2013-05-11 23:42:00,
2013-05-11 19:52:00,74.0,69.0,30.01,NW,325,2.0,6.0,85,0.02,,,0.02,,2013-05-11 23:52:00,
2013-05-11 20:01:00,73.0,69.0,30.01,NNW,328,0.0,5.0,88,0.02,,,0.02,,2013-05-12 00:01:00,
2013-05-11 20:12:00,73.0,69.0,30.01,NNW,328,0.0,5.0,88,0.02,,,0.02,,2013-05-12 00:12:00,
2013-05-11 20:21:00,72.0,68.0,30.01,NW,323,0.0,3.0,88,0.02,,,0.02,,2013-05-12 00:21:00,
2013-05-11 20:32:00,72.0,68.0,30.00,NW,324,0.0,0.0,87,0.02,,,0.02,,2013-05-12 00:32:00,
2013-05-11 20:42:00,72.0,68.0,30.00,NW,324,0.0,0.0,88,0.00,,,0.02,,2013-05-12 00:42:00,
2013-05-11 20:52:00,72.0,68.0,30.00,NW,324,0.0,0.0,88,0.00,,,0.02,,2013-05-12 00:52:00,
2013-05-11 21:01:00,71.0,68.0,30.01,NW,324,0.0,0.0,89,0.00,,,0.02,,2013-05-12 01:01:00,
2013-05-11 21:11:00,71.0,68.0,30.01,NW,324,0.0,0.0,89,0.00,,,0.02,,2013-05-12 01:11:00,
2013-05-11 21:21:00,70.0,67.0,30.01,NW,324,0.0,0.0,90,0.00,,,0.02,,2013-05-12 01:21:00,
2013-05-11 21:32:00,71.0,68.0,30.00,NW,324,0.0,0.0,91,0.00,,,0.02,,2013-05-12 01:32:00,
2013-05-11 21:42:00,71.0,68.0,30.00,NW,324,0.0,0.0,91,0.00,,,0.02,,2013-05-12 01:42:00,
2013-05-11 21:52:00,71.0,68.0,30.00,NW,324,0.0,0.0,91,0.00,,,0.02,,2013-05-12 01:52:00,
2013-05-11 22:01:00,71.0,68.0,30.00,NW,324,0.0,0.0,91,0.00,,,0.02,,2013-05-12 02:01:00,
2013-05-11 22:11:00,71.0,68.0,30.00,NW,324,0.0,0.0,91,0.00,,,0.02,,2013-05-12 02:11:00,
2013-05-11 22:22:00,71.0,68.0,30.00,NW,323,0.0,0.0,91,0.00,,,0.02,,2013-05-12 02:22:00,
2013-05-11 22:32:00,71.0,68.0,30.01,NW,323,0.0,0.0,91,0.00,,,0.02,,2013-05-12 02:32:00,
2013-05-11 22:42:00,71.0,68.0,30.01,NW,324,0.0,0.0,91,0.00,,,0.02,,2013-05-12 02:42:00,
2013-05-11 22:52:00,71.0,68.0,30.01,NW,324,0.0,0.0,91,0.00,,,0.02,,2013-05-12 02:52:00,
2013-05-11 23:01:00,71.0,68.0,30.01,NW,323,0.0,0.0,91,0.00,,,0.02,,2013-05-12 03:01:00,
2013-05-11 23:11:00,71.0,68.0,30.02,NW,324,0.0,0.0,91,0.00,,,0.02,,2013-05-12 03:11:00,
2013-05-11 23:22:00,71.0,68.0,30.02,NW,324,0.0,0.0,91,0.00,,,0.02,,2013-05-12 03:22:00,
2013-05-11 23:33:00,70.0,67.0,30.02,NW,324,0.0,0.0,91,0.00,,,0.02,,2013-05-12 03:33:00,
2013-05-11 23:43:00,70.0,67.0,30.02,NW,324,0.0,0.0,91,0.00,,,0.02,,2013-05-12 03:43:00,
2013-05-11 23:53:00,70.0,67.0,30.02,NW,324,0.0,0.0,91,0.00,,,0.02,,2013-05-12 03:53:00,